DW8868 Weather Reports


time (UTC)temp
C
wind
direction
speed
KPH
gust
KPH
rain 1hr
cm
rain 24hr
cm
rain mn
cm
humidity
%
barometer
mb
20260510011350 17 114 0.0 0.0 0.00 0.00 0.00 10 1008.7
20260510010846 17 114 0.0 0.0 0.00 0.00 0.00 10 1008.6
20260510010344 17 114 0.0 0.0 0.00 0.00 0.00 10 1008.7
20260510005840 17 114 0.0 0.0 0.00 0.00 0.00 10 1008.6
20260510005337 17 114 0.0 0.0 0.00 0.00 0.00 10 1008.7
20260510004834 17 116 0.0 0.0 0.00 0.00 0.00 10 1008.7
20260510004332 18 121 0.0 0.0 0.00 0.00 0.00 10 1008.5
20260510003829 18 114 0.0 0.0 0.00 0.00 0.00 10 1008.5
20260510003326 18 114 0.0 0.0 0.00 0.00 0.00 10 1008.4
20260510002825 18 116 0.0 0.0 0.00 0.00 0.00 10 1008.3
20260510002322 18 115 0.0 0.0 0.00 0.00 0.00 10 1008.6
20260510001818 19 115 0.0 0.0 0.00 0.00 0.00 10 1008.4
20260510001317 19 115 0.0 0.0 0.00 0.00 0.00 10 1008.2
20260510000812 20 115 0.0 0.0 0.00 0.00 0.00 10 1008.2
20260510000311 20 115 0.0 0.0 0.00 0.00 0.00 10 1008.1
20260509235807 20 118 0.0 0.0 0.00 0.00 0.00 10 1008.3
20260509235306 21 118 0.0 0.0 0.00 0.00 0.00 10 1008.2
20260509234759 21 119 0.0 0.0 0.00 0.00 0.00 10 1008.1
20260509234256 21 118 0.0 0.0 0.00 0.00 0.00 10 1008.2
20260509233755 21 118 0.0 0.0 0.00 0.00 0.00 10 1008.0
20260509233252 21 119 0.0 0.0 0.00 0.00 0.00 10 1007.9
20260509232748 22 119 0.0 0.0 0.00 0.00 0.00 10 1008.0
20260509232246 22 119 0.0 0.0 0.00 0.00 0.00 10 1007.8
20260509231742 22 128 0.0 0.0 0.00 0.00 0.00 10 1008.0
20260509231239 22 120 0.0 0.0 0.00 0.00 0.00 10 1008.1
20260509230736 22 121 0.0 1.6 0.00 0.00 0.00 10 1007.9
20260509230233 22 128 0.0 0.0 0.00 0.00 0.00 10 1008.0
20260509225728 22 164 1.6 1.6 0.00 0.00 0.00 10 1007.9
20260509225224 22 129 0.0 0.0 0.00 0.00 0.00 10 1008.0
20260509224720 22 132 0.0 0.0 0.00 0.00 0.00 10 1007.7
20260509224217 23 145 3.2 3.2 0.00 0.00 0.00 10 1007.8
20260509223714 23 146 1.6 1.6 0.00 0.00 0.00 10 1008.1
20260509223211 23 163 0.0 1.6 0.00 0.00 0.00 10 1007.9
20260509222708 23 127 1.6 1.6 0.00 0.00 0.00 10 1007.8
20260509222203 23 184 3.2 3.2 0.00 0.00 0.00 10 1007.9
20260509221659 23 178 3.2 3.2 0.00 0.00 0.00 10 1007.7
20260509221155 23 126 1.6 1.6 0.00 0.00 0.00 10 1007.9
20260509220652 22 138 1.6 1.6 0.00 0.00 0.00 10 1008.2
20260509220148 22 155 3.2 3.2 0.00 0.00 0.00 10 1007.9
20260509215644 23 155 0.0 1.6 0.00 0.00 0.00 10 1008.0
20260509215140 23 138 0.0 0.0 0.00 0.00 0.00 10 1007.8
20260509214632 23 90 0.0 1.6 0.00 0.00 0.00 10 1007.9
20260509214129 23 127 3.2 3.2 0.00 0.00 0.00 10 1007.8
20260509213625 23 178 1.6 3.2 0.00 0.00 0.00 10 1007.9
20260509213121 23 141 1.6 3.2 0.00 0.00 0.00 10 1007.9
20260509212618 23 168 3.2 3.2 0.00 0.00 0.00 10 1007.7
20260509212110 23 166 3.2 3.2 0.00 0.00 0.00 10 1007.8
20260509211606 23 125 0.0 0.0 0.00 0.00 0.00 10 1007.8
20260509211103 22 163 3.2 3.2 0.00 0.00 0.00 10 1007.8
20260509210559 23 146 1.6 1.6 0.00 0.00 0.00 10 1007.6
20260509210056 23 129 0.0 0.0 0.00 0.00 0.00 10 1007.8
20260509205556 23 193 4.8 4.8 0.00 0.00 0.00 10 1007.7
20260509205051 23 204 4.8 4.8 0.00 0.00 0.00 10 1007.9
20260509204548 24 113 0.0 1.6 0.00 0.00 0.00 10 1007.8
20260509204045 23 240 4.8 4.8 0.00 0.00 0.00 10 1007.8
20260509203540 23 131 1.6 1.6 0.00 0.00 0.00 10 1007.7
20260509203039 23 196 6.4 8.0 0.00 0.00 0.00 10 1007.8
20260509202533 23 175 1.6 1.6 0.00 0.00 0.00 10 1007.8
20260509202029 23 186 3.2 3.2 0.00 0.00 0.00 10 1007.6
20260509201524 22 211 6.4 8.0 0.00 0.00 0.00 10 1007.7
20260509201022 23 159 3.2 3.2 0.00 0.00 0.00 10 1007.6
20260509200521 22 165 0.0 1.6 0.00 0.00 0.00 10 1007.9
20260509200019 22 140 4.8 4.8 0.00 0.00 0.00 10 1008.0
20260509195514 22 357 3.2 3.2 0.00 0.00 0.00 10 1008.0
20260509195014 22 163 4.8 4.8 0.00 0.00 0.00 10 1008.3
20260509194509 23 104 1.6 3.2 0.00 0.00 0.00 10 1008.1
20260509194007 23 169 3.2 3.2 0.00 0.00 0.00 10 1008.2
20260509193507 22 5 6.4 9.7 0.00 0.00 0.00 10 1008.4
20260509193004 23 356 1.6 1.6 0.00 0.00 0.00 10 1008.4
20260509192500 23 226 3.2 4.8 0.00 0.00 0.00 10 1008.7
20260509191955 22 196 4.8 4.8 0.00 0.00 0.00 10 1008.7
20260509191450 22 146 1.6 1.6 0.00 0.00 0.00 10 1008.8
20260509190946 21 120 1.6 3.2 0.00 0.00 0.00 10 1008.7
20260509190443 22 124 3.2 4.8 0.00 0.00 0.00 10 1009.0
20260509185941 22 142 0.0 0.0 0.00 0.00 0.00 10 1009.0
20260509185438 22 120 0.0 0.0 0.00 0.00 0.00 10 1009.0
20260509184935 22 86 1.6 1.6 0.00 0.00 0.00 10 1009.0
20260509184433 22 104 0.0 0.0 0.00 0.00 0.00 10 1009.1
20260509183929 22 180 1.6 3.2 0.00 0.00 0.00 10 1008.8
20260509183423 21 174 0.0 0.0 0.00 0.00 0.00 10 1009.0
20260509182920 21 111 0.0 0.0 0.00 0.00 0.00 10 1009.3
20260509182416 21 143 1.6 1.6 0.00 0.00 0.00 10 1009.4
20260509181914 20 136 1.6 1.6 0.00 0.00 0.00 10 1009.1
20260509181412 20 119 1.6 1.6 0.00 0.00 0.00 10 1009.3
20260509180909 21 111 0.0 0.0 0.00 0.00 0.00 10 1009.4
20260509180404 21 131 1.6 1.6 0.00 0.00 0.00 10 1009.6
20260509175901 20 61 0.0 1.6 0.00 0.00 0.00 10 1009.8
20260509175357 20 127 0.0 0.0 0.00 0.00 0.00 10 1009.9
20260509174854 20 145 1.6 1.6 0.00 0.00 0.00 10 1010.0
20260509174350 20 155 1.6 3.2 0.00 0.00 0.00 10 1010.2
20260509173846 20 123 1.6 1.6 0.00 0.00 0.00 10 1009.9
20260509173341 20 255 4.8 8.0 0.00 0.00 0.00 10 1010.0
20260509172837 20 100 0.0 1.6 0.00 0.00 0.00 10 1010.1
20260509172334 20 135 3.2 4.8 0.00 0.00 0.00 10 1009.9
20260509171830 20 174 1.6 3.2 0.00 0.00 0.00 10 1010.2
20260509171326 20 151 1.6 1.6 0.00 0.00 0.00 10 1010.0
20260509170823 21 103 1.6 3.2 0.00 0.00 0.00 10 1010.0
20260509170318 21 177 4.8 4.8 0.00 0.00 0.00 10 1010.2
20260509165818 21 140 1.6 1.6 0.00 0.00 0.00 10 1010.1
20260509165313 20 233 4.8 8.0 0.00 0.00 0.00 10 1010.1
20260509164809 20 283 6.4 8.0 0.00 0.00 0.00 10 1010.1
20260509164306 20 175 3.2 3.2 0.00 0.00 0.00 10 1010.3
20260509163802 20 138 0.0 0.0 0.00 0.00 0.00 10 1010.2
20260509163259 20 147 1.6 1.6 0.00 0.00 0.00 10 1010.4
20260509162758 20 228 3.2 3.2 0.00 0.00 0.00 10 1010.3
20260509162251 20 131 1.6 3.2 0.00 0.00 0.00 10 1010.2
20260509161747 20 21 0.0 1.6 0.00 0.00 0.00 10 1010.3
20260509161243 19 139 1.6 3.2 0.00 0.00 0.00 10 1010.4
20260509160739 20 164 3.2 3.2 0.00 0.00 0.00 10 1010.2
20260509160236 20 154 0.0 1.6 0.00 0.00 0.00 10 1010.4
20260509155731 20 131 1.6 1.6 0.00 0.00 0.00 10 1010.4
20260509155228 20 158 3.2 3.2 0.00 0.00 0.00 10 1010.3
20260509154723 20 122 0.0 1.6 0.00 0.00 0.00 10 1010.4
20260509154221 19 92 1.6 1.6 0.00 0.00 0.00 10 1010.5
20260509153718 18 137 1.6 3.2 0.00 0.00 0.00 10 1010.4
20260509153214 19 291 4.8 8.0 0.00 0.00 0.00 10 1010.4
20260509152710 19 131 1.6 3.2 0.00 0.00 0.00 10 1010.6
20260509152207 18 147 1.6 1.6 0.00 0.00 0.00 10 1010.5
20260509151704 19 177 1.6 3.2 0.00 0.00 0.00 10 1010.7
20260509151201 20 156 1.6 1.6 0.00 0.00 0.00 10 1010.5
20260509150659 19 208 3.2 3.2 0.00 0.00 0.00 10 1010.7
20260509150157 19 141 1.6 1.6 0.00 0.00 0.00 10 1010.5
20260509145653 18 156 1.6 3.2 0.00 0.00 0.00 10 1010.9
20260509145148 18 200 3.2 3.2 0.00 0.00 0.00 10 1010.7
20260509144645 18 123 0.0 1.6 0.00 0.00 0.00 10 1011.0
20260509144142 17 200 3.2 3.2 0.00 0.00 0.00 10 1011.2
20260509143639 17 151 1.6 3.2 0.00 0.00 0.00 10 1011.0
20260509143137 17 141 4.8 4.8 0.00 0.00 0.00 10 1011.1
20260509142632 17 110 1.6 1.6 0.00 0.00 0.00 10 1011.1
20260509142129 17 149 1.6 1.6 0.00 0.00 0.00 10 1011.3
20260509141624 17 157 3.2 3.2 0.00 0.00 0.00 10 1011.1
20260509141121 16 110 1.6 3.2 0.00 0.00 0.00 10 1011.4
20260509140618 16 132 1.6 1.6 0.00 0.00 0.00 10 1011.2
20260509140116 16 145 3.2 3.2 0.00 0.00 0.00 10 1011.3
20260509135613 15 158 3.2 3.2 0.00 0.00 0.00 10 1011.2
20260509135111 15 137 1.6 1.6 0.00 0.00 0.00 10 1011.0
20260509134607 15 122 1.6 1.6 0.00 0.00 0.00 10 1010.9
20260509134105 15 123 1.6 1.6 0.00 0.00 0.00 10 1011.2
20260509133602 15 129 0.0 0.0 0.00 0.00 0.00 10 1011.2
20260509133059 15 128 0.0 0.0 0.00 0.00 0.00 10 1011.4
20260509132557 15 128 0.0 0.0 0.00 0.00 0.00 10 1011.3
20260509132055 15 129 0.0 1.6 0.00 0.00 0.00 10 1011.2
20260509131551 15 152 0.0 0.0 0.00 0.00 0.00 10 1011.2
20260509131048 15 128 0.0 0.0 0.00 0.00 0.00 10 1011.5
20260509130544 15 134 1.6 1.6 0.00 0.00 0.00 10 1011.5
20260509130041 15 130 0.0 0.0 0.00 0.00 0.00 10 1011.5
20260509125537 15 131 1.6 1.6 0.00 0.00 0.00 10 1011.6
20260509125034 15 137 0.0 1.6 0.00 0.00 0.00 10 1011.4
20260509124530 14 137 0.0 1.6 0.00 0.00 0.00 10 1011.3
20260509124028 14 135 0.0 0.0 0.00 0.00 0.00 10 1011.3
20260509123526 14 164 1.6 1.6 0.00 0.00 0.00 10 1011.3
20260509123021 14 130 0.0 0.0 0.00 0.00 0.00 10 1011.2
20260509122518 14 152 0.0 0.0 0.00 0.00 0.00 10 1011.0
20260509122015 14 152 3.2 3.2 0.00 0.00 0.00 10 1011.3
20260509121512 14 150 1.6 1.6 0.00 0.00 0.00 10 1011.2
20260509121010 14 156 1.6 3.2 0.00 0.00 0.00 10 1011.2
20260509120508 14 161 1.6 3.2 0.00 0.00 0.00 10 1011.2
20260509120005 14 157 1.6 3.2 0.00 0.00 0.00 10 1011.0
20260509115502 14 179 3.2 3.2 0.00 0.00 0.00 10 1011.1
20260509115000 14 163 1.6 3.2 0.00 0.00 0.00 10 1011.1
20260509114458 14 136 1.6 3.2 0.00 0.00 0.00 10 1011.1
20260509113957 14 153 1.6 1.6 0.00 0.00 0.00 10 1011.1
20260509113454 14 171 3.2 3.2 0.00 0.00 0.00 10 1011.1
20260509112951 14 166 3.2 3.2 0.00 0.00 0.00 10 1011.0
20260509112448 14 164 1.6 3.2 0.00 0.00 0.00 10 1010.8
20260509111944 14 164 3.2 3.2 0.00 0.00 0.00 10 1010.8
20260509111442 13 154 3.2 3.2 0.00 0.00 0.00 10 1011.0
20260509110940 13 151 1.6 1.6 0.00 0.00 0.00 10 1010.7
20260509110435 13 152 1.6 1.6 0.00 0.00 0.00 10 1010.9
20260509105933 13 153 1.6 1.6 0.00 0.00 0.00 10 1010.9
20260509105432 13 168 3.2 3.2 0.00 0.00 0.00 10 1010.9
20260509104928 13 155 1.6 1.6 0.00 0.00 0.00 10 1010.8
20260509104425 13 151 1.6 1.6 0.00 0.00 0.00 10 1010.8
20260509103922 13 164 1.6 1.6 0.00 0.00 0.00 10 1010.6
20260509103420 13 193 3.2 3.2 0.00 0.00 0.00 10 1010.6
20260509102918 13 172 3.2 3.2 0.00 0.00 0.00 10 1011.0
20260509102415 13 171 4.8 4.8 0.00 0.00 0.00 10 1010.7
20260509101911 13 151 1.6 1.6 0.00 0.00 0.00 10 1010.7
20260509101407 13 161 1.6 1.6 0.00 0.00 0.00 10 1010.9
20260509100905 13 160 1.6 3.2 0.00 0.00 0.00 10 1010.6
20260509100402 13 152 1.6 1.6 0.00 0.00 0.00 10 1010.4
20260509095859 13 174 3.2 3.2 0.00 0.00 0.00 10 1010.7
20260509095356 13 159 1.6 1.6 0.00 0.00 0.00 10 1010.3
20260509094853 13 146 1.6 1.6 0.00 0.00 0.00 10 1010.6
20260509094349 13 168 3.2 3.2 0.00 0.00 0.00 10 1010.6
20260509093847 13 164 1.6 3.2 0.00 0.00 0.00 10 1010.5
20260509093344 13 191 4.8 4.8 0.00 0.00 0.00 10 1010.6
20260509092843 13 165 3.2 3.2 0.00 0.00 0.00 10 1010.8
20260509092340 13 164 3.2 3.2 0.00 0.00 0.00 10 1010.7
20260509091838 13 152 1.6 1.6 0.00 0.00 0.00 10 1010.8
20260509091335 14 149 1.6 3.2 0.00 0.00 0.00 10 1010.9
20260509090832 13 191 4.8 4.8 0.00 0.00 0.00 10 1010.8
20260509090329 14 187 4.8 4.8 0.00 0.00 0.00 10 1011.1
20260509085827 14 185 3.2 3.2 0.00 0.00 0.00 10 1010.8
20260509085324 13 177 3.2 3.2 0.00 0.00 0.00 10 1010.8
20260509084820 13 178 1.6 3.2 0.00 0.00 0.00 10 1011.0
20260509084317 13 138 1.6 1.6 0.00 0.00 0.00 10 1011.1
20260509083815 13 149 1.6 1.6 0.00 0.00 0.00 10 1011.1
20260509083311 13 156 1.6 3.2 0.00 0.00 0.00 10 1011.1
20260509082808 13 166 3.2 3.2 0.00 0.00 0.00 10 1011.2
20260509082307 13 160 1.6 1.6 0.00 0.00 0.00 10 1010.9
20260509081802 13 182 4.8 4.8 0.00 0.00 0.00 10 1011.1
20260509081259 13 155 3.2 3.2 0.00 0.00 0.00 10 1011.3
20260509080757 13 164 1.6 3.2 0.00 0.00 0.00 10 1011.4
20260509080254 13 190 3.2 3.2 0.00 0.00 0.00 10 1011.3
20260509075753 13 146 0.0 1.6 0.00 0.00 0.00 10 1011.3
20260509075250 13 153 1.6 3.2 0.00 0.00 0.00 10 1011.3
20260509074746 13 158 1.6 3.2 0.00 0.00 0.00 10 1011.3
20260509074245 13 205 3.2 4.8 0.00 0.00 0.00 10 1011.4
20260509073740 13 178 3.2 3.2 0.00 0.00 0.00 10 1011.2
20260509073237 13 178 3.2 3.2 0.00 0.00 0.00 10 1011.5
20260509072733 13 151 1.6 1.6 0.00 0.00 0.00 10 1011.5
20260509072230 14 170 3.2 3.2 0.00 0.00 0.00 10 1011.3
20260509071727 14 163 3.2 3.2 0.00 0.00 0.00 10 1011.1
20260509071224 14 160 4.8 4.8 0.00 0.00 0.00 10 1011.3
20260509070721 14 178 3.2 3.2 0.00 0.00 0.00 10 1011.2
20260509070217 14 146 1.6 3.2 0.00 0.00 0.00 10 1011.4
20260509065714 14 147 1.6 1.6 0.00 0.00 0.00 10 1011.3
20260509065210 15 156 3.2 3.2 0.00 0.00 0.00 10 1011.4
20260509064707 14 167 3.2 3.2 0.00 0.00 0.00 10 1011.4
20260509064204 15 162 3.2 3.2 0.00 0.00 0.00 10 1011.5
20260509063701 15 161 3.2 3.2 0.00 0.00 0.00 10 1011.4
20260509063158 15 183 3.2 3.2 0.00 0.00 0.00 10 1011.3
20260509062655 15 184 1.6 3.2 0.00 0.00 0.00 10 1011.5
20260509062152 15 174 4.8 4.8 0.00 0.00 0.00 10 1011.6
20260509061649 15 165 4.8 4.8 0.00 0.00 0.00 10 1011.6
20260509061146 15 158 1.6 1.6 0.00 0.00 0.00 10 1011.6
20260509060644 15 184 3.2 3.2 0.00 0.00 0.00 10 1011.8
20260509060140 15 188 4.8 8.0 0.00 0.00 0.00 10 1011.6
20260509055636 15 153 4.8 4.8 0.00 0.00 0.00 10 1011.6
20260509055132 15 153 1.6 3.2 0.00 0.00 0.00 10 1011.9
20260509054628 15 183 3.2 3.2 0.00 0.00 0.00 10 1011.8
20260509054126 15 168 3.2 3.2 0.00 0.00 0.00 10 1011.7
20260509053624 15 185 4.8 4.8 0.00 0.00 0.00 10 1011.7
20260509053121 15 177 1.6 3.2 0.00 0.00 0.00 10 1011.9
20260509052619 15 167 3.2 4.8 0.00 0.00 0.00 10 1011.7
20260509052116 15 148 1.6 3.2 0.00 0.00 0.00 10 1011.6
20260509051614 15 187 4.8 4.8 0.00 0.00 0.00 10 1011.8
20260509051111 15 193 4.8 4.8 0.00 0.00 0.00 10 1012.0
20260509050608 15 183 3.2 3.2 0.00 0.00 0.00 10 1011.9
20260509050104 15 192 4.8 4.8 0.00 0.00 0.00 10 1011.7
20260509045602 15 148 1.6 1.6 0.00 0.00 0.00 10 1011.7
20260509045058 15 186 3.2 3.2 0.00 0.00 0.00 10 1011.6
20260509044556 15 184 1.6 3.2 0.00 0.00 0.00 10 1011.6
20260509044053 15 190 4.8 4.8 0.00 0.00 0.00 10 1011.7
20260509043549 15 165 3.2 3.2 0.00 0.00 0.00 10 1011.8
20260509043045 15 179 3.2 3.2 0.00 0.00 0.00 10 1011.7
20260509042541 15 181 3.2 3.2 0.00 0.00 0.00 10 1012.0
20260509042038 15 178 4.8 4.8 0.00 0.00 0.00 10 1011.8
20260509041534 15 182 3.2 3.2 0.00 0.00 0.00 10 1011.8
20260509041032 15 156 1.6 3.2 0.00 0.00 0.00 10 1012.0
20260509040531 15 198 3.2 4.8 0.00 0.00 0.00 10 1011.9
20260509040027 15 175 1.6 3.2 0.00 0.00 0.00 10 1011.6
20260509035524 15 144 1.6 3.2 0.00 0.00 0.00 10 1011.9
20260509035020 15 157 3.2 3.2 0.00 0.00 0.00 10 1011.9
20260509034519 15 144 1.6 1.6 0.00 0.00 0.00 10 1011.9
20260509034015 15 161 3.2 3.2 0.00 0.00 0.00 10 1012.0
20260509033512 15 147 3.2 3.2 0.00 0.00 0.00 10 1012.1
20260509033010 15 180 1.6 3.2 0.00 0.00 0.00 10 1012.0
20260509032507 15 181 1.6 3.2 0.00 0.00 0.00 10 1012.2
20260509032004 15 152 3.2 3.2 0.00 0.00 0.00 10 1011.9
20260509031501 15 161 3.2 3.2 0.00 0.00 0.00 10 1012.1
20260509030958 15 152 1.6 3.2 0.00 0.00 0.00 10 1012.1
20260509030456 15 162 3.2 3.2 0.00 0.00 0.00 10 1012.1
20260509025953 15 163 1.6 1.6 0.00 0.00 0.00 10 1012.3
20260509025449 15 156 1.6 3.2 0.00 0.00 0.00 10 1012.1
20260509024944 15 145 1.6 3.2 0.00 0.00 0.00 10 1012.1
20260509024440 15 156 3.2 3.2 0.00 0.00 0.00 10 1012.3
20260509023937 15 157 0.0 0.0 0.00 0.00 0.00 10 1012.1
20260509023435 15 156 0.0 0.0 0.00 0.00 0.00 10 1012.2
20260509022931 15 130 0.0 0.0 0.00 0.00 0.00 10 1012.2
20260509022428 15 144 1.6 1.6 0.00 0.00 0.00 10 1012.1
20260509021926 15 144 3.2 3.2 0.00 0.00 0.00 10 1012.2
20260509021423 15 132 1.6 1.6 0.00 0.00 0.00 10 1012.2
20260509020920 16 131 1.6 1.6 0.00 0.00 0.00 10 1012.3
20260509020418 16 131 1.6 1.6 0.00 0.00 0.00 10 1012.0
20260509015915 16 132 1.6 1.6 0.00 0.00 0.00 10 1012.1
20260509015414 16 144 1.6 1.6 0.00 0.00 0.00 10 1012.0
20260509014910 16 145 1.6 1.6 0.00 0.00 0.00 10 1012.1
20260509014407 16 156 3.2 3.2 0.00 0.00 0.00 10 1011.9
20260509013903 16 144 1.6 1.6 0.00 0.00 0.00 10 1012.0
20260509013359 16 130 0.0 0.0 0.00 0.00 0.00 10 1011.9
20260509012850 16 131 0.0 0.0 0.00 0.00 0.00 10 1012.1
20260509012347 16 144 0.0 0.0 0.00 0.00 0.00 10 1012.1
20260509011844 16 145 0.0 0.0 0.00 0.00 0.00 10 1012.0